Time,TemperatureF,DewpointF,PressureIn,WindDirection,WindDirectionDegrees,WindSpeedMPH,WindSpeedGustMPH,Humidity,HourlyPrecipIn,Conditions,Clouds,dailyrainin,SoftwareType,DateUTC
2013-12-20 00:00:00,62.3,59.9,29.97,SE,135,1.0,7.0,92,0.00,,,-99.99,WeatherLink 5.6,2013-12-20 06:00:00,
2013-12-20 00:30:00,62.0,59.6,29.96,East,90,0.0,5.0,92,0.00,,,-99.99,WeatherLink 5.6,2013-12-20 06:30:00,
2013-12-20 01:00:00,64.0,61.6,29.95,SE,135,2.0,11.0,92,0.00,,,-99.99,WeatherLink 5.6,2013-12-20 07:00:00,
2013-12-20 01:30:00,65.0,61.7,29.95,SE,135,4.0,11.0,89,0.00,,,-99.99,WeatherLink 5.6,2013-12-20 07:30:00,
2013-12-20 02:00:00,64.3,61.0,29.94,SE,135,3.0,7.0,89,0.00,,,-99.99,WeatherLink 5.6,2013-12-20 08:00:00,
2013-12-20 02:30:00,62.7,60.3,29.94,SE,135,0.0,3.0,92,0.00,,,-99.99,WeatherLink 5.6,2013-12-20 08:30:00,
2013-12-20 03:00:00,62.1,60.1,29.94,ESE,112,0.0,2.0,93,0.00,,,-99.99,WeatherLink 5.6,2013-12-20 09:00:00,
2013-12-20 03:30:00,61.8,60.4,29.95,ESE,112,0.0,1.0,95,0.00,,,-99.99,WeatherLink 5.6,2013-12-20 09:30:00,
2013-12-20 04:00:00,61.0,59.6,29.95,North,-999,0.0,0.0,95,0.00,,,-99.99,WeatherLink 5.6,2013-12-20 10:00:00,
2013-12-20 04:30:00,61.3,60.2,29.95,North,-999,0.0,0.0,96,0.00,,,-99.99,WeatherLink 5.6,2013-12-20 10:30:00,
2013-12-20 05:00:00,61.3,60.2,29.96,ESE,112,0.0,1.0,96,0.00,,,-99.99,WeatherLink 5.6,2013-12-20 11:00:00,
2013-12-20 05:30:00,62.0,60.8,29.97,North,-999,0.0,0.0,96,0.00,,,-99.99,WeatherLink 5.6,2013-12-20 11:30:00,
2013-12-20 06:00:00,62.7,61.8,29.97,East,90,0.0,1.0,97,0.00,,,-99.99,WeatherLink 5.6,2013-12-20 12:00:00,
2013-12-20 06:30:00,63.4,62.5,29.97,East,90,0.0,2.0,97,0.00,,,-99.99,WeatherLink 5.6,2013-12-20 12:30:00,
2013-12-20 07:00:00,64.0,63.1,29.98,East,90,0.0,3.0,97,0.00,,,-99.99,WeatherLink 5.6,2013-12-20 13:00:00,
2013-12-20 07:30:00,64.5,63.3,29.99,East,90,0.0,1.0,96,0.00,,,-99.99,WeatherLink 5.6,2013-12-20 13:30:00,
2013-12-20 08:00:00,66.1,64.9,30.00,SE,135,1.0,5.0,96,0.00,,,-99.99,WeatherLink 5.6,2013-12-20 14:00:00,
2013-12-20 08:30:00,67.4,65.0,30.00,ESE,112,2.0,10.0,92,0.00,,,-99.99,WeatherLink 5.6,2013-12-20 14:30:00,
2013-12-20 09:00:00,68.1,64.7,30.01,SE,135,4.0,13.0,89,0.00,,,-99.99,WeatherLink 5.6,2013-12-20 15:00:00,
2013-12-20 09:30:00,68.3,64.6,30.01,SE,135,3.0,14.0,88,0.00,,,-99.99,WeatherLink 5.6,2013-12-20 15:30:00,
2013-12-20 10:00:00,68.6,64.6,30.01,SE,135,1.0,10.0,87,0.00,,,-99.99,WeatherLink 5.6,2013-12-20 16:00:00,
2013-12-20 10:30:00,69.6,65.6,30.01,SE,135,1.0,9.0,87,0.00,,,-99.99,WeatherLink 5.6,2013-12-20 16:30:00,
2013-12-20 11:00:00,71.8,66.4,30.00,SE,135,2.0,11.0,83,0.00,,,-99.99,WeatherLink 5.6,2013-12-20 17:00:00,
2013-12-20 11:30:00,72.1,66.6,29.98,SE,135,7.0,15.0,83,0.00,,,-99.99,WeatherLink 5.6,2013-12-20 17:30:00,
2013-12-20 12:00:00,72.8,67.0,29.97,SE,135,8.0,17.0,82,0.00,,,-99.99,WeatherLink 5.6,2013-12-20 18:00:00,
2013-12-20 12:30:00,72.3,67.2,29.95,SE,135,7.0,16.0,84,0.00,,,-99.99,WeatherLink 5.6,2013-12-20 18:30:00,
2013-12-20 13:00:00,72.3,67.2,29.94,SE,135,8.0,18.0,84,0.00,,,-99.99,WeatherLink 5.6,2013-12-20 19:00:00,
2013-12-20 13:30:00,72.5,67.4,29.93,SE,135,7.0,17.0,84,0.00,,,-99.99,WeatherLink 5.6,2013-12-20 19:30:00,
2013-12-20 14:00:00,72.5,67.4,29.93,SE,135,7.0,18.0,84,0.00,,,-99.99,WeatherLink 5.6,2013-12-20 20:00:00,
2013-12-20 14:30:00,72.1,67.3,29.92,SE,135,8.0,17.0,85,0.00,,,-99.99,WeatherLink 5.6,2013-12-20 20:30:00,
2013-12-20 15:00:00,71.5,67.1,29.92,SE,135,3.0,13.0,86,0.00,,,-99.99,WeatherLink 5.6,2013-12-20 21:00:00,
2013-12-20 15:30:00,71.5,67.1,29.92,SE,135,3.0,15.0,86,0.00,,,-99.99,WeatherLink 5.6,2013-12-20 21:30:00,
2013-12-20 16:00:00,70.6,66.9,29.92,SE,135,3.0,13.0,88,0.00,,,-99.99,WeatherLink 5.6,2013-12-20 22:00:00,
2013-12-20 16:30:00,69.4,66.3,29.92,SE,135,2.0,9.0,90,0.00,,,-99.99,WeatherLink 5.6,2013-12-20 22:30:00,
2013-12-20 17:00:00,68.4,66.0,29.94,ESE,112,0.0,8.0,92,0.00,,,-99.99,WeatherLink 5.6,2013-12-20 23:00:00,
2013-12-20 17:30:00,67.8,65.7,29.94,ESE,112,1.0,10.0,93,0.00,,,-99.99,WeatherLink 5.6,2013-12-20 23:30:00,
2013-12-20 18:00:00,67.8,66.3,29.94,SE,135,1.0,7.0,95,0.00,,,-99.99,WeatherLink 5.6,2013-12-21 00:00:00,
2013-12-20 18:30:00,67.8,66.3,29.94,SE,135,2.0,7.0,95,0.00,,,-99.99,WeatherLink 5.6,2013-12-21 00:30:00,
2013-12-20 19:00:00,68.3,67.1,29.93,SE,135,3.0,11.0,96,0.00,,,-99.99,WeatherLink 5.6,2013-12-21 01:00:00,
2013-12-20 19:30:00,67.8,66.6,29.94,SE,135,3.0,13.0,96,0.00,,,-99.99,WeatherLink 5.6,2013-12-21 01:30:00,
2013-12-20 20:00:00,67.6,66.4,29.94,SE,135,3.0,12.0,96,0.00,,,-99.99,WeatherLink 5.6,2013-12-21 02:00:00,
2013-12-20 20:30:00,67.6,66.7,29.94,SE,135,3.0,14.0,97,0.00,,,-99.99,WeatherLink 5.6,2013-12-21 02:30:00,
2013-12-20 21:00:00,68.1,67.2,29.93,SE,135,3.0,13.0,97,0.00,,,-99.99,WeatherLink 5.6,2013-12-21 03:00:00,
2013-12-20 21:30:00,68.4,67.5,29.92,SE,135,4.0,13.0,97,0.00,,,-99.99,WeatherLink 5.6,2013-12-21 03:30:00,
2013-12-20 22:00:00,68.3,67.4,29.92,SE,135,4.0,15.0,97,0.00,,,-99.99,WeatherLink 5.6,2013-12-21 04:00:00,
2013-12-20 22:30:00,68.4,67.5,29.91,SE,135,3.0,15.0,97,0.00,,,-99.99,WeatherLink 5.6,2013-12-21 04:30:00,
2013-12-20 23:00:00,68.1,67.2,29.91,SE,135,4.0,15.0,97,0.00,,,-99.99,WeatherLink 5.6,2013-12-21 05:00:00,
2013-12-20 23:30:00,67.9,67.0,29.90,ESE,112,2.0,10.0,97,0.00,,,-99.99,WeatherLink 5.6,2013-12-21 05:30:00,